Zurück zum Katalog

STARLINK-5580

AktivKommunikationVLEO
NORAD 55748·PAYLOAD·🇺🇸 United States

Gestartet Mar 3, 2023 von Vandenberg Space Force Base

Loading…

Nächste Überflüge (nächste 24 Stunden)

TLE

AktuellSource: CelesTrak SupGP

Epoche: Sep 15, 2026, 02:16 UTC

1 55748C 23028H   26258.09493056  .00028677  00000+0  24032-2 0  2583
2 55748  69.9998 126.9388 0002909 271.7174 325.7102 14.98316717    15

Verfolge STARLINK-5580 in Echtzeit mit AllMySat

Download on the App Store